GFSSW_700_spd_333.txt.gz
Wind_Speed
4 5 6 6 6 7 9 11 11 13 16 16 15 13 12 9 7 5 4 4 6 6 8 5 8 7 14 16 12 12 11 9 6 6 5 3 2 6 7 7 8 6 4 1 3
4 6 6 7 7 8 9 11 11 13 15 15 14 12 11 8 7 5 5 5 9 6 9 6 10 12 17 14 11 10 11 7 7 7 7 7 5 8 8 8 10 8 7 5 7
5 6 7 7 8 9 10 11 11 12 13 14 13 11 10 7 7 6 6 9 11 11 10 8 10 13 13 11 12 8 10 9 8 8 12 11 10 9 9 9 8 9 7 6 8
6 6 7 7 8 10 11 12 11 12 13 13 14 13 10 8 4 7 10 11 13 10 5 9 11 11 11 10 11 9 8 7 7 9 9 10 8 6 5 8 8 7 6 4 5
7 7 7 8 9 11 12 13 13 12 14 15 15 13 10 7 9 10 13 15 15 12 12 15 11 8 9 9 11 8 7 6 9 9 8 8 4 3 2 4 6 8 5 6 8
8 8 8 8 9 11 13 14 14 13 14 15 14 12 9 9 9 10 13 10 14 14 13 12 11 9 8 8 8 3 3 5 6 7 5 4 2 2 3 1 3 5 2 6 7
8 9 9 9 10 12 13 14 15 15 15 16 15 13 10 8 9 9 14 16 13 12 11 11 11 7 3 7 6 5 7 4 4 4 4 4 7 6 4 1 4 4 1 5 9
8 9 9 10 11 13 14 15 15 15 16 17 15 14 8 7 9 10 14 11 9 8 9 8 8 8 6 3 6 3 5 4 4 4 2 7 7 5 6 3 6 4 4 2 7
9 9 10 10 12 14 15 16 16 15 14 15 15 9 3 3 8 11 15 14 9 7 4 5 3 5 3 0 5 4 7 3 5 5 7 10 13 10 12 9 9 8 3 3 9
9 10 11 12 13 16 17 17 15 14 14 13 11 9 6 8 8 15 17 14 9 5 1 2 3 6 4 1 0 3 1 3 8 10 8 15 20 16 14 13 8 10 7 6 5
11 11 12 13 15 17 18 18 16 14 16 12 13 6 10 12 14 14 11 9 7 3 3 3 3 2 3 6 4 1 3 5 9 11 15 16 16 18 19 19 14 12 8 8 9
12 13 13 15 18 19 20 19 17 17 13 11 9 7 10 11 14 13 11 7 5 5 5 3 3 2 3 4 5 2 9 9 5 5 12 11 15 14 18 21 17 14 15 13 14
14 14 16 18 19 20 20 18 15 13 12 9 7 6 6 11 11 9 8 6 4 3 1 2 6 5 3 1 6 4 1 4 6 10 14 15 14 6 10 12 15 17 18 19 20
15 17 20 21 20 21 19 17 10 13 8 9 6 4 6 8 11 10 8 8 6 5 4 4 5 3 8 4 6 5 3 5 6 9 7 13 10 14 9 12 14 14 20 19 21
17 19 22 21 20 20 18 16 13 11 4 7 8 7 9 10 10 10 8 4 4 2 2 1 2 5 3 6 7 7 9 9 9 9 14 10 7 10 24 20 11 15 12 16 19
18 20 21 20 19 16 15 14 12 2 3 8 9 11 13 12 9 7 8 6 3 3 5 7 9 9 5 6 9 10 13 14 8 4 2 4 3 13 18 23 20 23 12 10 15
18 21 21 19 17 11 16 12 3 1 12 10 12 12 13 11 6 3 5 6 6 4 1 8 5 4 4 8 10 10 10 5 2 1 3 5 5 18 18 19 22 19 15 15 14
18 21 21 18 14 10 13 8 2 11 4 11 12 13 11 7 4 5 6 9 8 9 13 9 8 7 9 8 10 13 7 5 5 5 9 11 7 12 27 20 25 20 14 11 9
16 19 19 18 12 12 10 3 6 6 5 8 8 9 12 9 6 5 9 12 13 10 12 8 8 9 8 18 18 8 6 6 6 12 5 5 11 20 18 20 21 18 14 13 10
15 16 16 15 14 14 11 8 9 8 7 9 13 10 8 12 9 6 9 4 4 7 7 13 12 14 13 11 13 13 12 5 5 4 7 7 10 10 19 21 21 24 21 17 15
15 18 17 17 18 13 11 12 10 7 7 5 7 10 7 7 11 9 5 6 8 4 3 5 7 7 8 9 9 9 9 7 4 6 7 8 9 18 22 21 21 22 24 20 19
14 14 17 21 19 12 12 13 9 6 6 5 5 8 9 10 9 8 7 8 8 8 7 6 6 7 6 7 8 12 10 5 6 9 10 10 17 7 18 25 29 25 28 18 20
10 10 18 22 17 13 12 12 10 8 7 6 5 8 7 6 5 8 7 7 4 6 7 9 7 6 3 6 9 14 11 10 12 13 14 15 19 25 29 30 30 30 29 22 18
6 11 17 21 20 16 12 12 12 10 8 7 6 6 8 9 9 7 10 10 10 10 13 12 13 13 15 14 14 12 13 13 14 15 24 23 30 28 26 28 27 29 27 22 24
9 8 15 19 18 17 16 12 12 11 10 9 9 7 4 3 5 7 9 9 9 10 11 11 12 13 15 14 14 15 15 18 22 24 23 30 26 26 27 23 23 21 25 22 21
10 8 15 10 16 18 16 13 12 10 11 11 12 11 11 11 11 12 13 13 14 14 15 16 13 15 19 18 21 28 25 24 26 28 30 24 25 24 19 24 25 24 23 27 20
12 12 10 16 13 15 17 16 16 15 14 14 15 15 13 13 14 16 17 19 21 23 23 22 16 15 23 19 20 23 25 20 22 22 20 20 21 18 21 22 22 22 22 19 10

GFSSW_700_spd_336.txt.gz
Wind_Speed
5 6 7 8 8 9 11 11 12 16 16 15 16 14 11 8 6 5 5 7 8 7 6 6 6 11 16 13 12 12 9 10 9 5 5 5 5 6 8 7 6 3 6 3 4
5 6 8 8 9 9 11 12 13 16 16 16 14 13 10 7 7 6 6 9 9 8 7 7 12 16 14 11 11 10 7 6 5 4 5 8 6 7 7 7 5 4 5 5 7
6 7 8 9 9 10 12 13 14 15 15 15 13 12 9 8 7 6 11 11 12 12 9 9 13 13 12 9 9 7 6 7 5 6 9 9 7 8 7 3 1 5 3 6 6
8 8 8 9 10 11 13 13 14 14 15 14 13 12 9 8 2 7 12 14 11 7 9 12 11 9 5 6 6 6 3 6 7 8 9 9 7 6 6 4 5 1 8 4 6
9 8 9 9 10 11 13 14 14 15 15 16 14 12 8 6 7 10 13 13 11 15 16 12 10 8 5 6 7 6 4 5 7 8 8 6 4 2 2 2 4 4 3 7 7
9 9 9 10 11 11 13 14 14 15 15 15 13 12 10 6 9 14 14 15 11 15 12 9 8 8 5 6 5 3 3 4 6 5 4 4 2 1 2 2 1 2 1 4 5
10 10 10 11 12 13 13 15 15 16 16 15 14 11 9 9 9 12 11 15 11 12 11 8 8 7 3 4 4 5 5 4 5 4 3 3 3 2 3 2 3 1 1 3 7
10 11 11 11 13 14 15 16 15 16 17 16 14 12 6 8 9 12 13 13 9 9 8 8 7 6 4 4 2 2 3 5 3 3 3 4 1 5 6 3 6 4 2 2 7
11 12 12 12 14 15 16 17 17 17 18 16 16 8 2 4 9 11 12 10 8 6 4 3 3 2 2 1 5 6 4 5 5 6 6 7 7 7 10 7 10 9 5 3 9
12 13 13 14 15 16 16 16 16 16 17 16 11 4 5 6 8 9 12 11 6 2 2 3 2 3 2 3 6 3 5 5 8 9 8 11 13 10 13 11 9 13 12 8 7
13 14 14 14 16 17 18 17 16 14 16 13 10 7 6 7 5 6 8 9 5 2 1 4 2 1 1 3 1 2 5 5 7 8 10 13 16 14 15 14 15 16 17 13 9
14 14 15 16 18 19 19 17 17 15 12 10 13 7 8 9 9 10 9 5 4 4 5 3 1 2 1 2 1 2 4 6 5 3 7 11 16 13 11 15 15 16 18 18 16
15 15 16 18 19 19 19 17 15 17 10 10 7 6 8 8 8 9 8 4 4 4 3 1 2 3 2 2 2 3 4 7 9 11 11 14 2 3 2 6 8 16 19 20 22
16 16 18 20 20 20 18 16 15 14 9 7 6 5 6 9 7 11 8 5 1 2 2 2 3 1 1 3 2 2 5 8 10 11 11 10 5 1 7 6 8 3 8 19 23
17 18 20 21 21 20 19 15 15 12 5 8 8 8 11 9 10 10 10 4 2 2 4 1 0 3 4 4 5 5 9 10 10 8 5 5 8 6 6 12 7 7 13 11 20
17 19 21 21 21 19 18 14 15 3 4 7 7 10 13 7 9 10 5 5 3 3 5 5 6 5 3 5 6 8 8 10 5 5 4 9 9 2 13 16 11 13 16 9 14
18 21 21 19 19 17 16 12 5 4 10 9 10 12 12 11 7 6 6 5 4 3 5 4 5 1 0 3 7 5 7 7 4 2 5 6 9 9 13 17 18 21 19 13 12
19 21 21 19 14 13 15 9 3 6 5 11 11 13 12 9 6 6 6 8 6 6 6 6 6 5 9 5 5 8 8 10 7 8 14 6 5 9 14 19 20 22 20 16 12
19 20 20 18 13 16 15 6 4 6 8 11 12 13 12 9 5 7 8 9 7 8 7 6 7 9 7 9 8 4 9 7 14 16 12 7 10 15 4 12 20 24 23 21 18
18 19 20 17 13 15 6 6 6 8 11 12 10 10 12 12 9 8 7 6 4 5 9 7 11 6 8 11 11 9 10 11 8 7 11 17 18 15 13 21 22 21 22 28 26
17 15 18 17 15 15 8 8 10 10 11 8 9 8 8 9 12 8 5 6 7 6 8 9 11 7 11 9 10 8 10 9 12 12 13 13 13 21 21 15 22 23 24 30 30
18 8 19 18 15 14 10 14 12 7 7 7 8 6 8 8 9 10 8 6 10 11 8 9 11 15 14 14 15 11 13 13 17 15 17 16 25 7 12 22 25 25 31 33 32
13 12 17 21 11 12 14 13 11 7 7 5 5 6 8 8 8 10 10 13 14 10 8 10 12 15 15 10 13 11 12 13 16 18 20 17 19 21 25 23 21 22 27 30 30
9 7 17 22 19 15 13 11 10 10 9 9 7 6 8 9 10 9 9 11 14 14 15 14 15 17 21 18 14 16 17 16 17 20 22 25 28 27 24 22 22 23 27 30 27
8 10 18 17 20 18 17 13 12 11 14 12 9 8 7 8 9 10 11 11 12 15 13 12 16 16 19 19 19 20 20 20 22 24 26 31 31 27 24 21 24 29 32 33 27
11 8 12 12 23 22 19 14 13 14 12 11 11 10 9 10 11 9 11 12 13 12 13 13 19 18 22 20 22 26 25 27 28 28 29 28 26 20 14 19 21 26 25 26 23
12 11 10 14 14 16 17 17 15 15 15 15 11 11 12 13 16 16 15 16 16 17 18 19 20 20 26 20 22 24 23 19 19 18 21 23 21 22 22 21 21 23 25 20 16

GFSSW_700_spd_339.txt.gz
Wind_Speed
5 6 6 7 8 9 10 11 14 17 17 17 15 12 9 7 6 6 4 6 7 8 6 8 11 14 11 9 13 6 11 7 4 4 9 8 6 6 6 8 6 1 4 12 7
6 6 7 8 9 10 11 12 15 17 17 16 14 12 8 7 6 6 3 8 8 8 7 11 12 13 4 3 3 7 4 7 3 5 6 7 5 5 6 5 2 6 10 8 9
7 7 8 9 10 11 12 13 15 17 17 15 13 11 8 9 9 6 8 9 10 10 11 13 15 11 4 2 2 5 8 7 6 5 7 7 6 6 3 4 2 9 8 6 8
8 8 9 9 11 12 13 13 15 16 16 14 12 10 11 10 3 4 10 12 12 9 15 7 2 2 2 4 1 4 4 3 7 8 8 7 6 6 3 2 3 6 3 6 9
9 9 9 10 11 13 14 15 15 16 16 14 11 9 7 10 1 8 13 10 10 14 11 3 2 2 1 1 2 4 4 5 7 8 7 7 6 3 2 4 5 6 1 5 13
10 10 10 11 12 14 15 15 15 15 15 13 12 9 11 1 6 10 11 10 14 12 3 6 0 2 1 1 5 3 3 5 7 6 5 5 4 3 4 3 7 5 9 11 12
10 11 11 11 13 14 15 15 15 14 15 13 12 10 6 6 8 9 10 9 12 8 4 2 2 1 3 3 5 4 7 7 7 7 5 7 7 3 5 5 8 8 9 12 12
11 12 11 12 14 15 16 15 15 16 15 14 12 10 2 7 9 9 11 8 9 6 3 1 5 1 1 5 6 7 6 4 6 7 7 6 5 7 6 5 7 9 10 12 13
12 12 13 13 14 16 18 17 16 16 15 14 13 8 4 3 6 9 11 4 5 1 1 3 2 3 8 8 12 6 2 14 10 8 5 6 6 5 7 7 7 9 10 11 13
13 13 13 14 15 16 17 18 16 16 15 13 9 2 3 3 8 8 8 7 2 3 4 4 4 7 5 8 3 7 5 5 8 13 4 8 11 11 11 7 8 12 11 13 14
14 14 14 14 16 17 18 17 15 14 16 7 5 1 4 7 4 7 9 7 6 6 9 5 7 12 7 4 7 7 3 6 5 3 6 8 10 12 9 9 12 12 14 13 14
14 15 14 15 17 19 20 22 16 13 11 10 10 8 6 8 6 8 8 6 7 10 6 10 7 3 4 3 4 4 10 6 4 2 3 5 10 8 7 9 8 13 14 16 16
15 15 16 16 18 18 18 14 16 17 9 8 7 5 9 8 7 8 9 4 7 7 5 4 5 6 3 2 6 8 8 7 9 10 9 7 5 6 5 3 6 9 13 15 18
16 16 17 18 18 19 17 14 19 15 11 9 7 7 10 8 7 9 9 6 4 3 1 1 2 2 2 2 5 7 5 8 9 11 6 4 10 13 10 1 2 4 7 13 17
17 17 19 21 23 20 19 17 16 12 4 10 11 9 10 9 9 10 9 6 4 3 4 8 3 2 4 2 5 9 5 6 8 12 8 7 10 5 7 7 7 6 6 9 15
17 19 22 21 21 21 20 16 16 6 5 9 8 12 13 9 8 9 6 7 7 6 8 5 4 3 4 2 4 9 9 9 7 9 8 10 10 17 11 8 7 8 8 10 8
17 20 22 22 19 20 18 18 7 9 8 9 12 14 12 11 8 8 7 8 11 8 15 6 8 3 2 6 6 6 19 12 11 10 8 9 8 9 10 8 8 11 12 12 8
19 22 22 21 19 20 18 7 10 2 7 11 13 13 15 10 10 8 9 12 8 7 12 5 6 6 3 6 7 9 10 11 8 9 14 7 2 3 9 7 9 14 18 15 11
19 21 20 19 16 18 17 11 1 7 5 12 11 14 11 10 3 8 9 11 6 6 7 8 2 3 9 7 7 5 10 12 12 16 16 6 8 15 2 4 12 17 15 14 14
19 17 16 18 15 19 7 9 3 4 6 10 12 11 12 11 10 8 11 5 6 7 7 9 10 4 3 9 12 9 12 15 12 7 8 11 15 4 10 15 16 15 17 16 16
18 11 17 18 16 16 12 6 4 6 7 8 8 8 9 10 11 12 5 5 8 7 8 10 14 10 8 13 7 7 13 9 11 10 13 11 11 18 11 13 16 20 19 15 17
15 9 17 18 10 11 12 7 10 5 8 6 4 7 8 8 10 13 9 8 7 7 11 9 13 16 17 13 12 14 15 15 18 15 18 19 24 8 9 15 21 21 17 18 20
11 9 18 20 11 13 9 8 8 6 7 6 7 8 8 9 11 12 11 11 11 9 10 8 11 18 18 16 11 9 12 14 15 20 22 18 20 15 20 22 22 19 19 21 25
9 6 11 22 12 11 14 12 11 10 7 8 6 8 9 10 11 12 11 14 12 10 18 16 19 21 23 24 19 18 18 20 20 20 23 24 26 24 27 26 21 19 21 18 28
7 8 13 16 17 13 9 11 13 10 11 9 9 10 9 11 12 14 14 14 14 15 15 14 19 18 21 21 21 23 23 22 23 24 26 29 29 28 27 17 20 17 20 17 25
12 6 8 8 17 19 15 14 13 13 11 10 12 10 11 12 11 11 9 13 14 12 13 12 22 20 26 23 23 26 26 26 27 27 28 28 27 21 15 18 18 19 20 17 22
14 11 8 11 14 16 19 17 16 16 14 14 12 12 13 14 14 16 15 17 18 18 19 20 21 23 28 23 24 25 22 20 17 15 16 20 22 21 19 17 17 20 19 18 14

GFSSW_700_spd_342.txt.gz
Wind_Speed
4 4 5 6 7 9 10 11 14 16 17 15 13 10 8 6 5 4 3 4 5 3 2 8 10 13 8 8 6 3 4 10 6 9 11 9 9 6 9 12 8 3 2 12 9
5 5 5 6 8 11 11 13 16 17 16 14 12 10 7 6 4 4 1 5 5 4 6 12 1 12 8 6 6 9 2 9 10 10 10 9 8 8 7 8 9 12 12 8 11
6 6 6 7 9 12 13 15 17 17 16 14 12 9 9 10 9 4 5 7 5 4 7 6 8 3 9 6 2 8 9 8 8 7 8 8 7 9 9 9 8 12 4 6 13
7 7 7 8 10 12 14 16 17 16 15 13 11 11 10 10 6 10 7 7 9 4 9 6 6 9 13 3 4 3 3 4 7 7 7 7 8 5 11 7 6 11 2 4 11
8 8 8 8 11 13 14 15 16 16 14 12 10 10 10 9 5 4 5 7 8 10 13 7 13 7 5 3 4 8 5 5 5 6 6 6 4 6 3 5 9 13 6 9 14
9 9 9 9 11 14 14 15 15 15 13 11 9 10 8 5 11 5 4 6 10 7 8 6 2 11 9 3 8 2 3 6 4 5 4 7 3 4 4 6 10 13 13 12 13
10 10 10 10 12 14 14 15 14 13 12 11 10 10 5 1 6 7 4 7 8 5 2 8 3 3 8 7 7 12 5 5 4 5 6 8 7 8 13 7 8 10 11 11 12
11 11 11 11 13 15 14 14 13 13 12 11 9 6 6 3 7 7 5 3 3 2 6 6 9 5 5 5 9 16 2 4 7 6 4 9 10 8 10 11 9 8 8 11 12
12 12 12 12 14 16 16 13 14 13 12 11 9 6 2 5 4 4 7 2 6 6 8 9 8 13 5 7 12 9 2 10 12 17 11 12 14 11 5 13 13 11 9 10 12
13 13 13 13 15 17 17 14 13 13 13 13 5 3 3 2 5 7 8 8 6 7 9 10 11 15 2 8 5 5 9 9 15 1 9 6 8 8 14 8 25 15 14 11 11
13 13 13 14 16 18 19 16 11 9 12 10 7 3 3 5 7 8 9 8 5 6 10 11 10 3 10 9 5 11 1 7 3 6 7 5 8 7 11 6 18 15 16 15 12
13 14 14 15 17 19 21 19 4 3 10 6 5 7 3 7 3 5 9 6 8 10 12 7 2 3 6 4 8 9 11 9 4 5 3 4 10 6 5 9 5 6 15 16 17
14 14 14 15 17 19 24 10 18 9 7 11 11 7 7 7 5 5 8 8 5 6 5 6 1 3 4 4 4 7 9 9 8 5 1 2 9 9 4 5 2 3 9 11 15
14 15 15 16 18 17 15 9 15 16 4 10 10 7 10 9 7 9 7 6 3 8 3 4 4 1 3 5 7 7 8 9 10 4 4 4 8 4 9 3 3 2 2 5 16
15 15 17 21 22 20 8 15 17 6 4 8 10 7 8 11 6 8 8 7 5 3 3 2 2 6 9 4 6 9 10 9 10 8 1 7 12 10 4 6 8 9 5 4 9
16 17 19 22 24 19 20 18 12 5 5 11 11 11 13 8 8 7 8 7 6 4 7 10 9 6 7 5 6 11 14 14 17 17 8 8 6 10 9 4 4 4 5 4 7
16 18 21 22 18 22 19 15 6 10 7 10 10 12 13 11 12 6 6 11 8 6 16 13 16 8 6 6 9 12 15 6 7 4 4 5 4 11 10 6 4 5 8 13 13
18 21 23 24 22 23 20 8 11 3 9 9 13 11 15 12 10 7 12 6 5 11 19 8 4 7 4 5 9 9 9 18 12 9 4 2 5 8 7 5 5 4 10 12 14
19 21 21 19 21 20 15 11 7 2 3 7 15 13 11 9 11 8 13 9 9 10 19 12 7 1 9 5 6 7 13 16 12 16 8 7 13 14 7 6 3 9 11 12 10
20 18 18 19 20 19 8 10 7 0 2 9 8 8 16 11 11 9 8 3 3 2 6 9 11 3 1 7 11 7 9 11 10 5 7 13 11 13 7 3 10 12 13 9 7
20 11 11 18 19 18 15 7 2 3 4 6 10 5 12 8 10 9 5 3 6 6 5 7 10 14 6 10 8 7 9 16 16 10 7 10 11 9 5 7 10 12 13 14 10
22 6 13 17 13 14 14 9 7 3 5 3 3 4 6 7 6 8 10 5 3 4 10 11 14 16 17 18 9 12 13 12 14 15 17 20 19 11 9 5 9 13 11 14 17
16 7 9 16 13 13 11 8 5 4 4 3 5 6 4 7 6 10 9 4 4 6 11 7 9 14 15 15 12 7 10 10 13 15 18 17 18 14 17 18 19 10 13 19 21
11 9 6 19 17 14 12 11 10 8 4 8 7 4 7 8 10 11 11 12 12 7 12 14 16 16 19 23 22 19 18 19 20 22 25 24 24 22 24 26 16 17 15 16 23
14 3 8 16 19 12 11 12 13 12 9 7 9 9 9 11 11 12 13 13 13 15 11 7 14 15 18 19 22 23 23 23 24 23 24 27 26 23 22 11 9 8 11 15 18
3 6 6 12 12 18 14 11 11 14 11 9 11 11 11 12 12 13 10 9 11 13 12 13 17 16 23 22 23 27 26 25 25 26 26 25 23 11 15 14 13 12 14 19 21
16 15 8 7 9 14 17 17 15 13 15 9 14 12 9 11 9 12 12 14 15 16 19 18 20 21 26 24 25 26 23 22 19 10 12 15 15 16 19 18 16 17 20 16 19

GFSSW_700_spd_345.txt.gz
Wind_Speed
4 4 6 6 8 9 10 11 13 15 16 13 11 9 5 4 2 2 1 4 5 3 3 8 11 9 8 3 0 3 15 10 11 13 11 14 10 7 6 16 7 7 7 2 9
4 5 6 7 9 10 11 12 15 16 15 13 10 7 4 4 2 1 1 4 3 4 12 11 11 4 6 5 5 6 3 9 12 14 10 13 4 12 13 8 8 9 5 2 6
5 6 7 9 10 11 12 14 16 16 14 12 9 7 8 5 4 5 1 3 4 4 9 5 5 4 4 13 7 3 9 7 11 10 8 8 9 7 8 14 9 2 3 3 7
5 6 8 9 12 12 13 15 16 15 13 11 9 11 8 8 4 15 7 2 6 10 12 8 7 12 4 5 5 8 7 11 11 9 1 8 10 14 11 11 11 7 1 2 7
6 7 8 10 12 14 15 15 15 14 13 10 9 8 6 5 5 10 4 4 7 12 5 12 12 14 10 3 2 3 12 6 8 6 8 5 10 9 8 8 7 9 4 6 8
8 8 9 10 13 14 15 14 14 13 11 9 7 7 4 4 6 7 1 3 9 7 7 9 11 10 6 13 8 1 6 10 5 7 4 8 9 10 17 6 5 3 3 4 6
9 9 9 11 13 14 15 14 13 12 10 8 7 4 6 3 1 2 2 5 9 6 11 11 11 12 20 6 10 5 9 8 8 5 9 7 9 3 4 12 9 7 1 4 9
10 10 10 11 14 14 14 14 13 11 9 8 6 2 4 8 7 5 6 11 6 7 14 18 13 13 18 8 13 8 6 6 6 10 7 7 6 9 16 15 16 11 2 9 12
11 11 11 12 14 15 13 13 12 11 9 8 5 4 4 5 4 2 4 10 9 10 4 10 9 14 12 11 13 10 8 5 3 12 12 9 8 14 6 20 20 15 11 14 13
12 12 12 13 15 16 14 13 11 11 10 9 3 3 10 4 6 2 4 5 1 11 10 13 13 5 7 11 14 2 4 0 9 5 3 11 12 13 1 1 15 17 19 17 15
14 13 13 14 16 17 15 14 11 4 8 5 3 3 5 4 5 3 3 0 6 8 10 12 7 4 7 4 15 4 2 11 15 13 4 1 1 5 7 8 11 24 26 20 15
14 14 14 15 18 19 18 17 12 3 10 7 3 2 4 10 2 1 4 1 5 10 12 13 3 6 8 11 5 7 1 9 7 1 6 7 10 8 12 11 3 7 18 17 11
15 15 15 16 18 21 21 9 15 14 8 13 8 6 6 7 3 3 5 5 4 6 10 3 3 3 7 13 2 4 7 11 14 9 9 5 2 6 2 5 2 4 7 12 16
16 16 16 18 20 24 21 4 13 11 7 6 14 6 11 7 6 5 3 6 5 4 7 5 3 6 14 6 4 10 7 9 9 4 5 9 3 12 16 12 6 4 2 8 15
17 17 18 20 20 19 15 7 12 1 5 11 10 2 10 10 7 5 7 6 8 7 4 7 6 6 6 4 6 9 9 9 9 18 14 14 8 6 6 14 15 16 15 9 4
18 18 20 23 24 21 17 12 8 2 7 8 14 11 12 9 4 9 8 10 6 7 12 12 10 9 6 9 7 15 18 18 5 4 7 18 11 11 12 14 11 9 9 4 5
18 18 22 25 26 22 21 13 3 7 10 17 12 13 18 15 13 11 10 8 8 3 10 10 13 10 5 5 6 14 18 7 7 3 9 2 11 9 18 13 3 5 10 11 6
18 20 23 26 18 20 24 13 9 5 9 8 12 11 17 16 13 10 11 7 9 12 8 14 9 7 7 2 11 13 15 12 3 4 5 8 11 16 8 10 9 5 5 10 3
19 22 24 24 19 18 19 9 7 12 5 13 11 13 13 10 12 11 16 11 10 1 4 2 8 6 11 5 6 9 8 12 12 18 6 14 20 14 16 15 5 1 5 5 9
19 21 23 20 21 17 19 12 9 8 4 5 11 11 8 8 8 15 8 5 15 3 3 6 13 8 4 7 11 7 7 11 20 3 5 9 8 22 15 5 9 10 8 8 13
19 15 20 20 18 19 18 7 12 5 4 7 12 11 12 4 1 18 6 5 7 10 6 7 10 20 14 7 9 9 7 9 12 11 1 2 7 2 4 5 2 6 14 17 17
19 12 10 17 17 21 17 6 10 5 6 6 7 5 10 5 2 1 12 4 10 10 5 8 15 15 18 16 9 14 8 6 9 11 16 10 7 4 9 7 9 11 13 18 19
17 16 5 13 21 21 10 17 10 7 5 3 5 10 9 9 7 7 6 4 6 4 6 9 8 13 15 9 7 17 13 6 6 10 13 7 10 7 17 10 3 6 10 13 16
13 9 9 11 21 15 16 11 6 9 6 4 8 5 7 5 5 8 11 8 8 9 11 10 6 12 15 20 21 23 21 20 19 17 19 18 22 25 21 11 6 7 13 17 23
10 9 9 7 20 20 10 12 18 12 10 6 8 7 8 9 12 8 10 14 11 12 10 10 8 9 11 16 19 20 22 22 21 23 21 23 24 3 7 11 13 13 15 17 25
9 6 5 10 8 19 9 14 14 8 13 10 8 7 8 11 10 6 13 11 10 6 7 11 15 16 18 17 20 24 24 24 22 20 25 8 6 5 8 13 18 23 29 26 22
19 8 7 13 6 9 18 15 15 13 11 7 9 11 9 10 14 12 8 10 11 13 16 17 19 21 25 23 24 24 24 22 24 23 15 12 9 13 17 19 23 29 33 29 25